Vertical_Velocity
4 1 -10 -5 1 3 4 0 -0 0 -5 -1 -5 -0 -14 -5 -3 -2 -6 -3 -0 -4 3 1 2 2 3 -0 2 3 -2 4 3 -0 5 1 3 4 1 0 0 -3 -1 0
2 -8 -12 1 3 2 4 -1 -0 -0 -1 15 3 -8 -4 -7 -5 -4 -3 7 -3 -1 1 -0 -1 3 2 2 1 -2 4 2 2 4 2 2 2 4 2 1 -1 -1 0 0
-3 -5 4 2 2 7 -1 -1 10 1 -5 -3 1 -22 -9 -7 -7 -4 -9 2 5 -2 3 -3 -2 3 3 -1 2 0 3 3 2 1 1 1 2 3 1 2 -2 -0 -0 -0
8 -5 -4 2 1 9 -3 -2 1 6 3 -2 10 -17 -10 -6 -3 -8 -14 -3 1 -1 -2 -2 -2 -0 5 -0 1 -0 0 0 0 1 1 -0 2 3 2 -0 1 -1 -0 -0
-11 -1 -0 -3 -14 8 -14 1 6 2 7 9 -24 18 -39 -9 -11 -14 -3 -1 -8 -8 2 -3 1 -1 1 1 2 0 2 -0 1 1 1 1 2 2 1 -1 1 -2 -1 -1
-2 3 -8 -9 11 8 9 5 5 4 3 9 -8 3 -23 -15 -9 -7 -2 -4 -5 0 -1 -1 2 1 0 2 1 3 3 2 1 2 -1 -1 1 1 -0 -1 0 -0 -0 -0
0 2 3 8 1 -3 12 15 1 11 9 -11 -3 12 -47 -7 -11 -6 14 6 -1 1 2 1 -0 0 1 1 2 1 0 0 1 0 2 -2 1 -0 1 0 -1 -0 1 0
-1 -7 2 -2 -20 -17 -17 -1 -3 -3 -2 -7 -4 -7 -40 -15 6 5 2 -1 7 8 -2 1 3 3 3 3 1 3 2 -1 1 0 -0 -0 1 1 -0 -1 -1 -1 -2 -1
-0 -8 1 -2 3 8 -14 7 -27 7 2 5 -7 -3 -31 -6 -4 -0 -3 -5 -2 2 -2 -3 1 6 4 2 3 6 2 0 1 2 -1 -1 -1 0 0 -0 1 0 -2 -1
2 -1 -7 3 4 -1 -8 -3 5 7 -0 -0 -2 -2 -24 -23 -10 -8 -7 -2 2 -1 -1 4 4 5 4 3 5 4 1 2 3 1 -0 0 -1 1 0 -1 0 -1 -2 -1
13 8 3 10 -13 -11 6 -6 5 2 -3 -0 1 -12 -13 -8 -8 -6 9 1 0 -5 4 5 4 4 2 5 4 2 2 1 3 3 1 1 0 1 -1 0 -0 -1 -1 -0
-6 12 1 -32 4 17 18 -6 1 3 -0 -3 8 -27 17 2 -5 -0 -7 4 3 10 7 5 4 2 1 4 3 3 3 2 1 2 2 1 -0 -0 -0 -0 0 0 -1 -1
-4 -1 -2 1 11 27 -1 2 -13 1 5 -13 8 -24 4 0 6 0 2 4 2 4 4 1 -1 -0 2 2 2 2 3 2 2 3 2 1 1 -0 0 0 -0 0 -0 -0
16 5 -5 -3 1 -7 -3 -19 0 -1 -0 -4 -19 -20 31 -2 -2 -1 0 6 3 4 3 4 -0 2 3 2 3 3 3 2 3 3 1 2 1 1 1 0 1 -0 -1 -1
14 -1 -3 -10 -5 18 -4 3 -5 0 -2 -13 -24 -13 33 -7 -0 6 6 0 0 -0 0 1 1 1 1 3 3 1 1 2 2 3 3 1 1 1 0 2 0 -1 -1 -1
3 -11 3 9 -1 2 6 5 10 3 -7 -3 53 -9 8 4 5 0 -2 0 1 2 2 2 1 2 3 3 3 4 3 4 4 2 1 1 1 1 0 0 -1 -0 -0 -1
15 -2 3 -4 18 3 18 -23 26 -11 10 -1 1 3 4 3 1 0 -2 -0 -0 -0 1 2 2 2 1 3 6 5 4 2 1 1 2 2 -0 0 0 -1 1 0 -1 0
0 13 13 -4 2 -3 5 19 17 22 13 5 -8 5 2 4 2 0 -1 3 -0 1 1 1 1 1 2 3 3 1 2 3 2 2 1 -0 -1 -0 0 0 -1 -1 -0 -1
-3 5 0 1 1 -1 -4 -0 -1 -3 5 2 2 2 -0 -2 0 -0 -1 -1 2 4 1 2 1 1 1 2 3 2 2 1 2 0 0 1 0 0 -1 -2 -1 -1 0 -1
6 2 3 0 0 -0 2 -0 -2 -1 -3 3 0 1 -1 1 -4 -5 -2 -1 -1 0 3 2 3 3 2 2 1 0 0 1 1 0 -1 -0 -1 -1 -1 -1 -0 -1 -1 -2
2 1 -1 -0 -1 -3 3 1 -1 -1 -1 -4 2 2 -0 -3 1 4 3 2 1 0 2 3 1 2 1 -0 1 2 1 0 0 -1 -0 0 -1 0 -0 -1 -2 -0 0 -0
-5 -4 -4 2 -1 -6 2 5 1 1 4 2 -2 -1 -1 2 -0 2 1 -0 0 2 2 2 2 1 1 2 1 -0 -1 0 1 0 0 -0 -0 -1 -1 -0 -0 -2 -2 -1
-8 -4 -14 -7 0 -0 -1 2 2 -1 -1 0 0 -2 -2 2 2 4 2 2 2 2 2 0 0 0 -0 -0 -0 0 0 -0 -0 -0 -1 -1 -1 -1 -0 -0 -0 -1 -2 -2
-6 1 -4 2 -0 0 2 1 2 2 0 -3 -2 -1 -2 3 3 2 0 -0 1 2 2 2 1 1 1 1 0 -0 -1 -1 -1 -1 -1 -0 0 -0 -1 -3 -3 -2 -2 -1
3 4 0 -7 -1 3 -1 -1 -1 -2 -1 0 -2 -3 0 0 0 3 2 1 0 -0 -1 -1 0 0 1 -0 -1 0 1 0 -0 0 1 0 1 -0 -1 -3 -2 0 -3 -7
-3 0 -5 -0 7 4 6 3 3 2 2 1 0 -0 -2 -1 1 -1 -1 -2 -1 -0 0 0 0 -0 -1 -1 -0 -0 0 1 1 0 -0 -0 -1 -2 -1 1 5 -4 -2 0
Height
3049 3048 3043 3048 3051 3053 3054 3053 3052 3057 3061 3062 3060 3055 3059 3064 3066 3068 3071 3075 3077 3079 3082 3084 3086 3087 3088 3087 3089 3089 3091 3093 3096 3099 3100 3100 3100 3101 3099 3098 3098 3098 3098 3096
3044 3038 3043 3047 3048 3048 3048 3048 3045 3053 3058 3058 3054 3046 3050 3053 3054 3060 3064 3067 3070 3073 3075 3078 3080 3082 3083 3084 3084 3086 3088 3090 3093 3094 3095 3097 3097 3097 3096 3096 3095 3095 3094 3092
3036 3036 3040 3040 3041 3042 3041 3042 3047 3051 3053 3049 3050 3037 3041 3043 3046 3052 3055 3060 3064 3066 3069 3072 3074 3076 3079 3080 3081 3083 3085 3087 3088 3090 3091 3093 3094 3094 3094 3093 3092 3091 3091 3089
3030 3033 3036 3034 3033 3040 3036 3041 3045 3048 3052 3047 3050 3034 3031 3035 3036 3040 3044 3048 3055 3059 3062 3065 3067 3071 3074 3076 3078 3080 3082 3083 3084 3087 3088 3090 3091 3091 3091 3091 3090 3089 3087 3085
3024 3025 3028 3028 3028 3035 3030 3039 3041 3044 3045 3046 3041 3044 3016 3026 3024 3028 3033 3038 3047 3049 3054 3058 3062 3065 3069 3072 3074 3076 3078 3080 3082 3084 3086 3087 3089 3089 3088 3087 3086 3085 3083 3081
3019 3020 3021 3021 3025 3028 3030 3035 3037 3039 3041 3034 3022 3035 3006 3012 3013 3020 3025 3031 3038 3041 3047 3051 3055 3059 3063 3067 3070 3072 3075 3077 3079 3081 3083 3085 3086 3086 3085 3084 3083 3081 3079 3075
3014 3011 3015 3017 3020 3022 3026 3029 3029 3030 3030 3013 3017 3024 2997 3004 3008 3012 3018 3024 3030 3033 3039 3044 3048 3053 3058 3062 3065 3068 3070 3073 3075 3077 3079 3081 3082 3082 3081 3080 3078 3076 3073 3069
3009 3005 3004 3004 3010 3015 3017 3021 3021 3018 3020 3013 3018 3006 2989 2999 3006 3008 3011 3016 3022 3026 3032 3038 3044 3049 3053 3057 3061 3064 3066 3069 3072 3074 3076 3078 3078 3077 3076 3075 3073 3070 3067 3063
3000 2996 2996 2998 3001 3008 3012 3011 3010 3015 3012 3011 3001 2994 2994 2997 2998 3002 3004 3008 3013 3018 3025 3033 3039 3044 3048 3053 3057 3060 3062 3065 3068 3071 3072 3073 3074 3073 3072 3070 3068 3065 3061 3057
2995 2994 2992 2993 2996 2997 2999 3008 3013 3013 3013 3004 2986 2988 2983 2987 2991 2995 2997 3003 3010 3016 3022 3028 3033 3039 3043 3048 3052 3056 3059 3062 3065 3067 3068 3069 3069 3068 3067 3065 3062 3058 3054 3051
2991 2988 2985 2985 2979 2981 2989 2994 2999 3003 3002 2996 2986 2976 2974 2980 2986 2990 2996 3004 3008 3013 3018 3024 3030 3034 3039 3043 3048 3052 3055 3058 3061 3063 3064 3064 3064 3063 3061 3058 3055 3052 3048 3043
2982 2980 2976 2970 2971 2971 2975 2980 2990 2995 2995 2995 2990 2975 2971 2974 2980 2990 2998 3003 3007 3012 3016 3021 3026 3030 3034 3040 3045 3049 3052 3055 3057 3058 3059 3059 3059 3057 3055 3052 3049 3045 3040 3035
2978 2976 2974 2961 2965 2967 2972 2975 2982 2991 2993 2988 2996 2976 2969 2974 2980 2989 2995 3000 3004 3009 3014 3018 3022 3026 3032 3037 3042 3045 3048 3051 3053 3054 3054 3054 3053 3051 3048 3046 3042 3037 3033 3027
2973 2969 2966 2961 2959 2963 2966 2972 2975 2980 2982 2989 2984 2979 2978 2975 2981 2987 2992 2998 3003 3007 3012 3016 3020 3025 3030 3034 3038 3042 3044 3046 3048 3049 3049 3048 3047 3045 3042 3038 3034 3030 3025 3020
2969 2964 2961 2955 2951 2954 2958 2963 2966 2965 2976 2983 2972 2980 2977 2978 2981 2986 2992 2997 3001 3005 3009 3014 3019 3023 3027 3030 3034 3037 3040 3042 3043 3044 3043 3042 3041 3038 3034 3031 3027 3022 3017 3011
2966 2959 2954 2944 2943 2949 2954 2957 2959 2966 2973 2977 2975 2974 2975 2979 2984 2988 2992 2997 3001 3005 3009 3013 3016 3020 3025 3028 3031 3033 3035 3037 3038 3038 3038 3036 3034 3031 3028 3024 3020 3015 3009 3004
2963 2960 2956 2949 2946 2949 2952 2951 2950 2957 2965 2971 2970 2975 2978 2981 2986 2990 2994 2999 3003 3007 3010 3013 3016 3019 3022 3025 3027 3029 3031 3032 3033 3032 3031 3030 3027 3024 3021 3017 3012 3007 3002 2997
2963 2962 2957 2956 2952 2953 2954 2954 2956 2961 2966 2971 2973 2976 2980 2984 2987 2991 2995 2999 3002 3005 3008 3011 3014 3016 3018 3021 3022 3024 3025 3026 3027 3027 3025 3023 3020 3017 3014 3009 3005 3000 2994 2988
2961 2963 2962 2959 2958 2958 2956 2957 2958 2959 2965 2968 2973 2976 2979 2983 2986 2990 2994 2997 3000 3004 3006 3009 3011 3013 3015 3016 3018 3019 3021 3022 3021 3020 3019 3016 3014 3011 3007 3002 2997 2992 2987 2981
2960 2962 2964 2962 2961 2960 2960 2960 2960 2961 2963 2965 2969 2971 2976 2979 2983 2988 2991 2995 2998 3000 3003 3006 3008 3010 3011 3013 3014 3016 3016 3016 3015 3014 3012 3010 3007 3004 2999 2995 2990 2985 2979 2973
2959 2961 2962 2963 2961 2958 2959 2960 2961 2963 2968 2964 2965 2968 2972 2976 2982 2986 2989 2992 2994 2997 3000 3002 3004 3006 3008 3009 3010 3011 3011 3011 3010 3008 3006 3003 3000 2996 2992 2988 2983 2977 2971 2966
2957 2959 2960 2961 2962 2960 2959 2961 2963 2964 2963 2963 2964 2966 2969 2974 2978 2982 2986 2988 2991 2994 2996 2998 3001 3003 3004 3005 3006 3006 3006 3006 3004 3002 2999 2996 2993 2989 2985 2980 2975 2969 2963 2957
2957 2956 2957 2959 2959 2959 2960 2961 2963 2964 2964 2964 2965 2966 2969 2973 2977 2981 2983 2986 2988 2991 2993 2995 2998 3000 3001 3002 3002 3002 3001 3000 2998 2996 2994 2990 2986 2982 2978 2973 2967 2963 2957 2949
2951 2953 2954 2956 2955 2957 2959 2961 2963 2963 2964 2965 2966 2967 2969 2973 2976 2979 2982 2984 2986 2988 2991 2993 2995 2996 2997 2997 2998 2998 2997 2995 2992 2990 2987 2983 2980 2975 2971 2965 2960 2955 2947 2940
2951 2951 2951 2951 2954 2955 2958 2961 2962 2963 2964 2966 2966 2968 2970 2972 2974 2977 2980 2983 2985 2988 2990 2992 2993 2994 2994 2994 2994 2992 2990 2988 2986 2983 2981 2977 2974 2969 2965 2960 2954 2947 2940 2932
2947 2948 2950 2950 2953 2955 2957 2960 2961 2962 2963 2965 2967 2968 2970 2973 2976 2978 2980 2982 2984 2986 2988 2989 2990 2990 2990 2989 2988 2987 2985 2983 2980 2978 2975 2972 2967 2963 2958 2953 2949 2941 2933 2925